FW0832 Weather Reports


time (UTC)temp
F
wind
direction
speed
knots
gust
knots
rain 1hr
in
rain 24hr
in
rain mn
in
humidity
%
barometer
mb
20260901023016 68 218 0.0 0.0 0.00 0.01 0.00 86 1013.1
20260901021514 69 218 0.0 0.0 0.00 0.01 0.00 85 1012.9
20260901020011 70 218 0.0 0.0 0.00 0.01 0.00 84 1012.8
20260901013117 72 218 0.0 0.0 0.00 0.01 0.01 82 1012.2
20260901011557 74 218 0.0 0.0 0.00 0.01 0.01 79 1012.0
20260901010058 75 218 0.0 1.7 0.00 0.01 0.01 77 1011.9
20260901004555 76 218 0.0 0.0 0.00 0.01 0.01 77 1012.0
20260901003055 77 218 0.0 1.7 0.00 0.01 0.01 75 1012.0
20260901001559 79 218 0.0 0.0 0.00 0.01 0.01 74 1012.0
20260831234608 81 218 0.0 0.9 0.00 0.01 0.01 67 1012.0
20260831233057 81 218 0.9 3.5 0.00 0.01 0.01 63 1012.1
20260831231554 81 265 0.9 3.5 0.00 0.01 0.01 64 1012.2
20260831230052 81 265 0.9 3.5 0.00 0.01 0.01 64 1012.2
20260831224552 81 265 1.7 3.5 0.00 0.01 0.01 62 1012.1
20260831223057 81 265 1.7 2.6 0.00 0.01 0.01 58 1012.1
20260831221552 81 265 0.9 2.6 0.00 0.01 0.01 60 1012.2
20260831220053 81 265 1.7 3.5 0.00 0.01 0.01 61 1012.2
20260831214602 81 263 1.7 3.5 0.00 0.02 0.01 58 1012.2
20260831213052 81 264 1.7 5.2 0.00 0.02 0.01 58 1012.3
20260831211549 81 261 2.6 5.2 0.00 0.02 0.01 58 1012.4
20260831210047 81 298 1.7 3.5 0.00 0.02 0.01 58 1012.5
20260831204549 81 298 2.6 7.8 0.00 0.02 0.01 55 1012.4
20260831203049 80 298 2.6 7.0 0.00 0.02 0.01 56 1012.3
20260831201549 81 289 4.3 7.0 0.00 0.02 0.01 57 1012.3
20260831200044 80 273 4.3 8.7 0.00 0.02 0.01 60 1012.4
20260831194545 80 283 2.6 7.8 0.00 0.02 0.01 63 1012.4
20260831193111 80 296 2.6 7.0 0.00 0.02 0.01 60 1012.4
20260831191540 79 302 2.6 5.2 0.00 0.02 0.01 65 1012.4
20260831190043 79 276 4.3 7.0 0.00 0.02 0.01 63 1012.6
20260831184533 78 279 3.5 7.0 0.00 0.02 0.01 64 1012.6
20260831183031 77 290 2.6 7.8 0.00 0.02 0.01 65 1012.5
20260831181544 77 269 3.5 7.0 0.00 0.02 0.01 68 1012.5
20260831180035 76 275 2.6 3.5 0.00 0.02 0.01 66 1012.4
20260831174527 76 273 0.0 4.3 0.00 0.02 0.01 68 1012.4
20260831173024 75 302 1.7 4.3 0.00 0.02 0.01 70 1012.5
20260831171522 75 277 1.7 6.1 0.00 0.02 0.01 74 1012.5
20260831170020 75 298 1.7 3.5 0.00 0.02 0.01 75 1012.4
20260831164515 74 298 0.0 3.5 0.00 0.02 0.01 78 1012.4
20260831163015 73 311 0.9 3.5 0.00 0.02 0.01 80 1012.6
20260831161515 72 271 0.9 3.5 0.00 0.02 0.01 81 1012.5
20260831160014 71 307 0.9 4.3 0.00 0.02 0.01 83 1012.5
20260831154509 70 307 0.9 4.3 0.00 0.02 0.01 85 1012.6
20260831153006 69 307 0.9 4.3 0.01 0.02 0.01 87 1012.2
20260831151506 68 311 2.6 6.1 0.01 0.02 0.01 88 1012.1
20260831150005 68 318 2.6 7.0 0.01 0.03 0.01 90 1012.1
20260831144507 67 319 2.6 7.0 0.01 0.03 0.01 91 1012.2
20260831143005 66 267 2.6 7.0 0.00 0.02 0.00 92 1012.1
20260831141503 65 302 1.7 7.0 0.00 0.02 0.00 92 1012.1
20260831140002 65 306 2.6 7.0 0.00 0.02 0.00 92 1012.0
20260831134606 65 300 3.5 7.0 0.00 0.02 0.00 92 1011.6
20260831133058 65 306 2.6 7.0 0.00 0.02 0.00 92 1011.5
20260831131602 65 293 1.7 5.2 0.00 0.02 0.00 92 1011.1
20260831130100 65 311 1.7 7.0 0.00 0.02 0.00 92 1010.7
20260831124552 66 320 1.7 7.8 0.00 0.02 0.00 92 1010.5
20260831123048 66 284 5.2 8.7 0.00 0.02 0.00 91 1010.2
20260831121547 67 304 2.6 8.7 0.00 0.02 0.00 90 1010.2
20260831120043 67 305 1.7 7.0 0.00 0.02 0.00 89 1009.9
20260831114540 68 297 1.7 4.3 0.00 0.02 0.00 89 1009.7
20260831113044 68 317 0.9 5.2 0.00 0.02 0.00 89 1009.4
20260831111634 69 317 0.9 4.3 0.00 0.02 0.00 89 1009.1
20260831110033 69 313 1.7 4.3 0.00 0.02 0.00 89 1008.6
20260831104536 70 334 0.9 4.3 0.00 0.02 0.00 89 1008.4
20260831103028 70 290 0.9 8.7 0.00 0.02 0.00 89 1008.2
20260831101527 70 347 1.7 7.0 0.00 0.02 0.00 89 1008.1
20260831100032 70 321 1.7 5.2 0.00 0.02 0.00 89 1008.0
20260831094532 71 315 0.0 3.5 0.00 0.02 0.00 90 1007.9
20260831093042 71 304 0.9 7.0 0.00 0.02 0.00 91 1007.6
20260831091522 71 302 2.6 7.0 0.00 0.02 0.00 92 1007.4
20260831090020 71 332 2.6 5.2 0.00 0.02 0.00 92 1007.2
20260831084516 72 348 1.7 5.2 0.00 0.02 0.00 92 1006.9
20260831083014 72 343 1.7 7.0 0.00 0.02 0.00 92 1006.8
20260831081514 72 334 2.6 8.7 0.00 0.02 0.00 92 1006.7
20260831080012 73 355 0.9 7.0 0.00 0.02 0.00 90 1006.7
20260831074510 73 343 2.6 10.4 0.00 0.02 0.00 90 1006.7
20260831073006 73 309 2.6 7.0 0.00 0.02 0.00 88 1006.5
20260831071502 73 309 1.7 7.0 0.00 0.02 0.00 86 1006.2
20260831070002 73 292 3.5 7.0 0.00 0.02 0.00 85 1006.4
20260831064559 73 275 2.6 7.0 0.00 0.02 0.00 84 1006.5
20260831063108 73 307 1.7 7.0 0.00 0.02 0.00 85 1006.5
20260831061552 72 240 1.7 4.3 0.00 0.02 0.00 83 1006.2
20260831060049 72 234 1.7 8.7 0.00 0.02 0.00 85 1005.9
20260831054546 71 220 0.9 4.3 0.00 0.03 0.00 84 1005.8
20260831053122 71 212 1.7 4.3 0.00 0.03 0.00 84 1005.6
20260831051543 71 210 2.6 6.1 0.00 0.03 0.00 84 1005.5
20260831050041 71 225 3.5 6.1 0.00 0.03 0.00 85 1005.4
20260831044634 71 211 1.7 5.2 0.00 0.03 0.03 85 1005.3
20260831043040 72 207 2.6 4.3 0.00 0.03 0.03 86 1005.2
20260831041540 72 213 1.7 4.3 0.00 0.03 0.03 87 1005.4
20260831040038 73 186 2.6 3.5 0.00 0.03 0.03 88 1005.5
20260831034536 74 169 0.9 3.5 0.00 0.03 0.03 88 1005.3
20260831033052 74 157 0.9 2.6 0.00 0.03 0.03 88 1005.3
20260831031538 75 156 0.0 0.9 0.00 0.03 0.03 88 1005.1
20260831030035 76 156 0.0 1.7 0.00 0.03 0.03 87 1004.9
20260831024535 77 156 0.0 0.0 0.00 0.03 0.03 87 1004.8